TimeAKST,TemperatureF,Dew PointF,Humidity,Sea Level PressureIn,VisibilityMPH,Wind Direction,Wind SpeedMPH,Gust SpeedMPH,PrecipitationIn,Events,Conditions,WindDirDegrees,DateUTC
12:16 AM,-0.4,-4.0,85,30.37,10.0,WSW,3.5,-,N/A,,Clear,250,2013-11-06 09:16:00
12:36 AM,-5.8,-7.6,92,30.37,10.0,Calm,Calm,-,N/A,,Clear,0,2013-11-06 09:36:00
12:56 AM,-7.6,-14.8,71,30.37,10.0,Calm,Calm,-,N/A,,Clear,0,2013-11-06 09:56:00
1:16 AM,-5.8,-5.8,100,30.37,10.0,Calm,Calm,-,N/A,,Clear,0,2013-11-06 10:16:00
1:36 AM,-5.8,-5.8,100,30.36,10.0,Calm,Calm,-,N/A,,Clear,0,2013-11-06 10:36:00
1:56 AM,-5.8,-7.6,92,30.36,10.0,Calm,Calm,-,N/A,,Clear,0,2013-11-06 10:56:00
2:16 AM,-7.6,-7.6,100,30.36,10.0,Calm,Calm,-,N/A,,Clear,0,2013-11-06 11:16:00
2:36 AM,-9.4,-11.2,92,30.36,10.0,SE,5.8,-,N/A,,Clear,130,2013-11-06 11:36:00
2:56 AM,-9.4,-11.2,92,30.36,10.0,ESE,5.8,-,N/A,,Clear,110,2013-11-06 11:56:00
3:16 AM,-9.4,-9.4,100,30.36,10.0,East,5.8,-,N/A,,Clear,90,2013-11-06 12:16:00
3:36 AM,-7.6,-7.6,100,30.35,10.0,ENE,5.8,-,N/A,,Clear,60,2013-11-06 12:36:00
3:56 AM,-7.6,-7.6,100,30.35,10.0,East,6.9,-,N/A,,Clear,90,2013-11-06 12:56:00
4:16 AM,-9.4,-13.0,84,30.33,10.0,NE,5.8,-,N/A,,Clear,50,2013-11-06 13:16:00
4:36 AM,-9.4,-11.2,92,30.33,10.0,NE,6.9,-,N/A,,Clear,50,2013-11-06 13:36:00
4:56 AM,-9999,-9999,N/A,30.31,10.0,NE,6.9,-,N/A,,Clear,50,2013-11-06 13:56:00
5:16 AM,-9999,-9999,N/A,30.31,10.0,ENE,6.9,-,N/A,,Clear,70,2013-11-06 14:16:00
5:36 AM,-9999,-9999,N/A,30.32,10.0,ENE,6.9,-,N/A,,Clear,70,2013-11-06 14:36:00
5:56 AM,-9999,-9999,N/A,30.31,10.0,ENE,12.7,-,N/A,,Clear,60,2013-11-06 14:56:00
6:16 AM,-11.2,-11.2,100,30.32,10.0,ENE,12.7,-,N/A,,Clear,70,2013-11-06 15:16:00
6:36 AM,-11.2,-11.2,100,30.32,10.0,ENE,10.4,-,N/A,,Clear,60,2013-11-06 15:36:00
6:56 AM,-9999,-9999,N/A,30.33,10.0,East,8.1,-,N/A,,Clear,80,2013-11-06 15:56:00
7:16 AM,-13.0,-14.8,92,30.32,10.0,East,11.5,-,N/A,,Clear,80,2013-11-06 16:16:00
7:36 AM,-9999,-9999,N/A,30.31,10.0,ENE,11.5,-,N/A,,Clear,70,2013-11-06 16:36:00
7:56 AM,-11.2,-14.8,84,30.31,10.0,ENE,10.4,-,N/A,,Clear,70,2013-11-06 16:56:00
8:16 AM,-9.4,-11.2,92,30.29,5.0,ENE,13.8,-,N/A,,Clear,60,2013-11-06 17:16:00
8:36 AM,-5.8,-5.8,100,30.28,2.5,ENE,18.4,-,N/A,,Clear,60,2013-11-06 17:36:00
8:56 AM,-5.8,-7.6,92,30.28,5.0,ENE,18.4,-,N/A,,Clear,70,2013-11-06 17:56:00
9:16 AM,-2.2,-2.2,100,30.28,10.0,ENE,20.7,-,N/A,,Clear,70,2013-11-06 18:16:00
9:36 AM,-2.2,-4.0,92,30.27,10.0,ENE,20.7,-,N/A,,Clear,60,2013-11-06 18:36:00
9:56 AM,-2.2,-4.0,92,30.27,9.0,ENE,19.6,-,N/A,,Clear,70,2013-11-06 18:56:00
10:16 AM,-2.2,-5.8,85,30.26,10.0,ENE,20.7,-,N/A,,Clear,70,2013-11-06 19:16:00
10:36 AM,-2.2,-5.8,85,30.26,10.0,ENE,18.4,-,N/A,,Clear,70,2013-11-06 19:36:00
10:56 AM,-2.2,-2.2,100,30.25,10.0,ENE,19.6,-,N/A,,Clear,70,2013-11-06 19:56:00
11:16 AM,-0.4,-2.2,92,30.24,10.0,ENE,19.6,-,N/A,,Clear,60,2013-11-06 20:16:00
11:36 AM,-0.4,-2.2,92,30.24,10.0,ENE,17.3,-,N/A,,Clear,60,2013-11-06 20:36:00
11:56 AM,-0.4,-2.2,92,30.24,10.0,ENE,18.4,-,N/A,,Clear,60,2013-11-06 20:56:00
12:16 PM,-0.4,-2.2,92,30.23,10.0,ENE,19.6,-,N/A,,Clear,60,2013-11-06 21:16:00
12:36 PM,-0.4,-0.4,100,30.22,10.0,ENE,18.4,-,N/A,,Clear,60,2013-11-06 21:36:00
12:56 PM,1.4,-0.4,92,30.21,10.0,ENE,20.7,-,N/A,,Clear,60,2013-11-06 21:56:00
1:16 PM,1.4,-0.4,92,30.20,10.0,ENE,23.0,-,N/A,,Clear,70,2013-11-06 22:16:00
1:36 PM,1.4,1.4,100,30.19,10.0,ENE,21.9,-,N/A,,Clear,70,2013-11-06 22:36:00
1:56 PM,3.2,-0.4,85,30.18,10.0,ENE,23.0,26.5,N/A,,Clear,70,2013-11-06 22:56:00
2:16 PM,3.2,1.4,92,30.17,10.0,ENE,21.9,-,N/A,,Clear,70,2013-11-06 23:16:00
2:36 PM,3.2,-0.4,85,30.16,10.0,ENE,21.9,-,N/A,,Clear,70,2013-11-06 23:36:00
2:56 PM,3.2,1.4,92,30.16,7.0,ENE,24.2,-,N/A,,Clear,70,2013-11-06 23:56:00
3:16 PM,3.2,3.2,100,30.15,10.0,East,18.4,-,N/A,,Clear,90,2013-11-07 00:16:00
3:36 PM,3.2,-0.4,85,30.14,10.0,ENE,17.3,-,N/A,,Clear,70,2013-11-07 00:36:00
3:56 PM,6.8,5.0,92,30.13,10.0,ENE,21.9,-,N/A,,Clear,60,2013-11-07 00:56:00
4:16 PM,8.6,3.2,79,30.13,10.0,ENE,17.3,-,N/A,,Clear,60,2013-11-07 01:16:00
4:36 PM,8.6,5.0,85,30.12,10.0,NE,16.1,-,N/A,,Clear,50,2013-11-07 01:36:00
4:56 PM,8.6,3.2,79,30.11,10.0,ENE,16.1,-,N/A,,Clear,60,2013-11-07 01:56:00
5:16 PM,8.6,6.8,92,30.09,10.0,East,15.0,-,N/A,,Clear,80,2013-11-07 02:16:00
5:36 PM,10.4,8.6,92,30.08,10.0,East,20.7,-,N/A,,Clear,80,2013-11-07 02:36:00
5:56 PM,12.2,10.4,92,30.06,4.0,East,29.9,35.7,N/A,,Clear,80,2013-11-07 02:56:00
6:16 PM,14.0,10.4,86,30.05,2.0,East,29.9,-,N/A,,Clear,80,2013-11-07 03:16:00
6:36 PM,14.0,10.4,86,30.05,4.0,East,28.8,33.4,N/A,,Clear,80,2013-11-07 03:36:00
6:56 PM,14.0,10.4,86,30.04,2.5,East,27.6,-,N/A,,Clear,80,2013-11-07 03:56:00
7:16 PM,14.0,10.4,86,30.03,3.0,ENE,27.6,33.4,N/A,,Clear,70,2013-11-07 04:16:00
7:36 PM,14.0,10.4,86,30.02,1.8,East,32.2,38.0,N/A,,Clear,80,2013-11-07 04:36:00
7:56 PM,14.0,10.4,86,30.02,2.0,East,31.1,-,N/A,,Clear,80,2013-11-07 04:56:00
8:16 PM,15.8,10.4,79,30.02,1.5,ENE,32.2,36.8,N/A,,Clear,70,2013-11-07 05:16:00
8:36 PM,15.8,10.4,79,30.04,4.0,ENE,27.6,33.4,N/A,,Clear,70,2013-11-07 05:36:00
8:56 PM,15.8,10.4,79,30.03,10.0,ENE,23.0,27.6,N/A,,Clear,60,2013-11-07 05:56:00
9:16 PM,14.0,10.4,86,30.02,10.0,ENE,23.0,28.8,N/A,,Clear,70,2013-11-07 06:16:00
9:36 PM,14.0,10.4,86,30.01,10.0,ENE,23.0,-,N/A,,Clear,70,2013-11-07 06:36:00
9:56 PM,14.0,10.4,86,29.99,6.0,ENE,26.5,-,N/A,,Clear,70,2013-11-07 06:56:00
10:16 PM,14.0,10.4,86,29.99,8.0,ENE,24.2,-,N/A,,Clear,70,2013-11-07 07:16:00
10:36 PM,15.8,12.2,86,29.98,3.0,East,31.1,35.7,N/A,,Clear,80,2013-11-07 07:36:00
10:56 PM,15.8,10.4,79,29.97,2.5,East,29.9,36.8,N/A,,Clear,80,2013-11-07 07:56:00
11:16 PM,14.0,10.4,86,29.96,3.0,East,28.8,35.7,N/A,,Clear,80,2013-11-07 08:16:00
11:36 PM,14.0,10.4,86,29.95,1.5,East,34.5,39.1,N/A,,Clear,80,2013-11-07 08:36:00
11:56 PM,14.0,10.4,86,29.95,2.0,ENE,31.1,38.0,N/A,,Clear,70,2013-11-07 08:56:00